Location: Observatory
(52.1446°N, 0.4624°W)
Time: 13:46:48
(UTC+00:00)

N. Korean satellite - Visible Passes

Search period start: 17 December 2017 00:00
Search period end: 27 December 2017 00:00
Orbit: 461 x 513 km, 97.2° (Epoch: 16 December)

Date Brightness Start Highest point End Pass type
(mag) Time Alt. Az. Time Alt. Az. Time Alt. Az.
17 Dec 8.5 06:24:20 10° NNE 06:27:46 34° E 06:31:07 10° SSE visible
17 Dec 7.3 17:05:50 10° SE 17:09:12 33° ENE 17:12:36 10° N visible
17 Dec 8.9 18:39:34 10° SSW 18:42:45 26° W 18:45:59 10° NW visible
18 Dec 9.5 06:01:13 10° NE 06:04:01 20° E 06:06:46 10° SE visible
18 Dec 8.0 16:43:00 10° ESE 16:45:48 20° ENE 16:48:38 10° NNE visible
18 Dec 7.8 18:15:27 10° S 18:19:04 45° W 18:22:43 10° NNW visible
19 Dec 10.1 05:38:47 10° ENE 05:40:11 12° E 05:41:35 10° ESE visible
19 Dec 6.6 07:10:30 10° N 07:14:13 74° WNW 07:17:50 10° SSW visible
19 Dec 6.7 17:51:41 10° SSE 17:55:26 82° WSW 17:59:13 10° NNW visible
20 Dec 7.2 06:46:57 10° NNE 06:50:37 61° E 06:54:12 10° S visible
20 Dec 6.7 17:28:12 10° SSE 17:31:53 56° ENE 17:35:36 10° N visible
20 Dec 9.7 19:03:22 10° SW 19:05:44 16° W 19:08:06 10° NW visible
21 Dec 8.5 06:23:33 10° NNE 06:26:57 33° E 06:30:15 10° SSE visible
21 Dec 7.4 17:05:01 10° SE 17:08:24 32° ENE 17:11:48 10° N visible
21 Dec 8.9 18:38:44 10° SSW 18:41:57 26° W 18:45:11 10° NW visible
22 Dec 9.5 06:00:27 10° NE 06:03:11 20° E 06:05:53 10° SE visible
22 Dec 8.0 16:42:11 10° ESE 16:45:00 20° ENE 16:47:48 10° NNE visible
22 Dec 7.8 18:14:37 10° S 18:18:14 46° W 18:21:54 10° NNW visible
23 Dec 10.1 05:38:05 10° ENE 05:39:21 11° E 05:40:35 10° ESE visible
23 Dec 6.5 07:09:41 10° N 07:13:23 75° WNW 07:16:58 10° SSW visible
23 Dec 6.7 17:50:51 10° SSE 17:54:36 83° WSW 17:58:24 10° NNW visible
24 Dec 7.2 06:46:08 10° NNE 06:49:46 60° E 06:53:19 10° S visible
24 Dec 6.7 17:27:22 10° SSE 17:31:03 55° ENE 17:34:45 10° N visible
24 Dec 9.7 19:02:30 10° SW 19:04:53 16° W 19:07:17 10° NW visible
25 Dec 8.5 06:22:44 10° NNE 06:26:05 32° E 06:29:20 10° SSE visible
25 Dec 7.4 17:04:11 10° SE 17:07:33 32° ENE 17:10:56 10° N visible
25 Dec 8.9 18:37:52 10° SSW 18:41:06 27° W 18:44:20 10° NW visible
26 Dec 9.5 05:59:38 10° NE 06:02:18 19° E 06:04:55 10° SE visible
26 Dec 8.0 16:41:21 10° ESE 16:44:08 20° ENE 16:46:55 10° NNE visible
26 Dec 7.7 18:13:45 10° S 18:17:22 46° W 18:21:01 10° NNW visible
